Weather History for Cortez, CO

Change the Weather History Date:

Friday, May 4, 2012

  Actual Average Record
Temperature  
Mean Temperature 62 °F 52 °F  
Max Temperature 81 °F 71 °F 84 °F (2000)
Min Temperature 42 °F 34 °F 25 °F (2013)
Degree Days  
Heating Degree Days 3 13  
Month to date heating degree days 27 53  
Since 1 July heating degree days 5742 6123  
Cooling Degree Days 0 0  
Month to date cooling degree days 0 0  
Year to date cooling degree days 0 0  
Growing Degree Days 12 (Base 50)    
Moisture  
Dew Point 21 °F    
Average Humidity 29    
Maximum Humidity 49    
Minimum Humidity 8    
Precipitation  
Precipitation 0.00 in 0.04 in 0.05 in (1999)
Month to date precipitation 0.00 0.16  
Year to date precipitation 2.41 4.38  
Sea Level Pressure  
Sea Level Pressure 29.88 in    
Wind  
Wind Speed 9 mph (SSW)    
Max Wind Speed 21 mph    
Max Gust Speed 26 mph    
Visibility 10 miles    
Events      
T = Trace of Precipitation, MM = Missing Value Source: NWS Daily Summary

Daily Weather History Graph

Daily Weather History Graph

Search for Another Location

Airport:

Trip Planner

Search our weather history database for the weather conditions in past years. The results will help you decide how hot, cold, wet, or windy it might be!

Date:

Astronomy

May. 04, 2012 Rise Set
Actual Time 6:15 AM MDT 8:07 PM MDT
Civil Twilight 5:47 AM MDT 8:35 PM MDT
Nautical Twilight 5:13 AM MDT 9:10 PM MDT
Astronomical Twilight 4:36 AM MDT 9:46 PM MDT
Moon 6:50 PM MDT (5/4) 4:57 AM MDT (5/4)
Length of Visible Light 14h 48m
Length of Day
13h 51m
Waxing Gibbous, 97% of the Moon is Illuminated
May 4
Waxing Gibbous
May 5
Full
May 12
Last Quarter
May 20
New
May 28
First Quarter

Hourly Weather History & Observations

Time (MDT) Temp. Windchill Dew Point Humidity Pressure Visibility Wind Dir Wind Speed Gust Speed Precip Events Conditions
12:53 AM 61.0 °F - 21.9 °F 22% 29.84 in 10.0 mi SW 10.4 mph - N/A   Clear
1:53 AM 60.1 °F - 23.0 °F 24% 29.84 in 10.0 mi SSW 11.5 mph - N/A   Clear
2:53 AM 60.1 °F - 24.1 °F 25% 29.84 in 10.0 mi SSW 17.3 mph 23.0 mph N/A   Clear
3:53 AM 57.0 °F - 25.0 °F 29% 29.86 in 10.0 mi SSW 13.8 mph - N/A   Clear
4:53 AM 48.9 °F - 26.1 °F 41% 29.89 in 10.0 mi NE 10.4 mph - N/A   Clear
5:53 AM 43.0 °F 37.2 °F 24.1 °F 47% 29.92 in 10.0 mi NE 10.4 mph - N/A   Clear
6:53 AM 44.1 °F 39.5 °F 25.0 °F 47% 29.95 in 10.0 mi East 8.1 mph - N/A   Clear
7:53 AM 54.0 °F - 30.0 °F 40% 29.96 in 10.0 mi North 4.6 mph - N/A   Clear
8:53 AM 61.0 °F - 27.0 °F 27% 29.96 in 10.0 mi Calm Calm - N/A   Clear
9:53 AM 66.9 °F - 25.0 °F 21% 29.96 in 10.0 mi Variable 3.5 mph - N/A   Clear
10:53 AM 70.0 °F - 23.0 °F 17% 29.95 in 10.0 mi SW 12.7 mph 20.7 mph N/A   Clear
11:53 AM 73.0 °F - 19.9 °F 14% 29.94 in 10.0 mi SSW 11.5 mph - N/A   Clear
12:53 PM 73.9 °F - 19.0 °F 13% 29.89 in 10.0 mi SW 10.4 mph 18.4 mph N/A   Clear
1:53 PM 75.0 °F - 17.1 °F 11% 29.87 in 10.0 mi SW 12.7 mph - N/A   Clear
2:53 PM 78.1 °F - 19.0 °F 11% 29.84 in 10.0 mi SW 11.5 mph 21.9 mph N/A   Clear
3:53 PM 78.1 °F - 18.0 °F 10% 29.83 in 10.0 mi SW 9.2 mph - N/A   Clear
4:53 PM 80.1 °F - 16.0 °F 9% 29.83 in 10.0 mi SSW 9.2 mph 19.6 mph N/A   Clear
5:53 PM 80.1 °F - 14.0 °F 8% 29.83 in 10.0 mi South 12.7 mph 21.9 mph N/A   Clear
6:53 PM 77.0 °F - 12.9 °F 9% 29.83 in 10.0 mi WSW 15.0 mph - N/A   Clear
7:53 PM 71.1 °F - 15.1 °F 12% 29.82 in 10.0 mi SSW 5.8 mph - N/A   Clear
8:53 PM 57.0 °F - 18.0 °F 22% 29.85 in 10.0 mi Calm Calm - N/A   Clear
9:53 PM 52.0 °F - 21.0 °F 30% 29.86 in 10.0 mi Variable 4.6 mph - N/A   Clear
10:53 PM 50.0 °F - 19.0 °F 29% 29.87 in 10.0 mi East 5.8 mph - N/A   Clear
11:53 PM 48.0 °F - 19.0 °F 32% 29.87 in 10.0 mi NE 6.9 mph - N/A   Clear